www.pogodaiklimat.ru

Погода и климат >> Архив погоды >> Россия >> Новгородская область >> Валдай


ПОГОДА в Валдае

  • Прогноз погоды в Валдае
  • Монитор погоды в Валдае
  • Климат города

АРХИВ ПОГОДЫ в Валдае

Время (UTC), дата Ветер
(напр.,м/с)
 
Видим.   Явления Облачность Т
(С)
Тd
(С)
f
(%)
Тe
(С)
Тes
(С)
Комфортность P
(гПа)
Po
(гПа)
Тmin
(С)
Tmax
(С)
R
(мм)
R24
(мм)
S
(см)
03 13.11 Ю 3 10 км слабый дождь 10/10 270 м
[Frnb Ns]
+2.1 -36.1 4 -1 -1 1005.1 980.4 +0.3 3
06 13.11 Ю 4 20 км {дождь} 10/10 360 м
[St]
+2.2 -36.0 4 -1 -1 1006.9 982.1 +0.3 2
09 13.11 Ю 3 20 км в посл. час ливневой дождь 10/10 540 м
[Cb cap]
+2.0 -36.1 4 -1 -1 1008.7 983.9
12 13.11 Ю 2 20 км {ливн. осадки} 10/10 570 м
[Cb cap]
+2.4 -35.8 4 +1 +1 1009.6 984.8
15 13.11 Ю 2 20 км в посл. час ливневой дождь 10/10 600 м
[Cb cap]
+2.0 -36.1 4 0 0 1010.1 985.3
18 13.11 Ю 3 20 км {ливн. осадки} 9/9 600 м
[Sc]
+1.8 -36.3 4 -1 -1 1010.5 985.6 +2.5
21 13.11 ЮВ 1 20 км 10/8 600 м
[Sc Ac As]
+0.8 -37.0 4 +1 +1 1010.2 985.2
00 14.11 ЮВ 1 4000 м слабый снег 10/0 480 м
[As op]
+0.3 -37.4 4 0 0 1008.7 983.7
03 14.11 штиль 0 4000 м слабый снег 10/10 360 м
[Frnb Ns]
-0.1 -37.6 4 0 0 1007.4 982.4 -0.1 0.8
06 14.11 З 1 9000 м слабый снег 10/10 210 м
[Frnb Ns]
-0.2 -37.7 4 -1 -1 1006.6 981.7 -0.2 1 2
09 14.11 З 1 3200 м слабая переохл. морось (гололёд) {снег} 10/10 180 м
[St]
-0.2 -37.7 4 -1 -1 1007.5 982.5
12 14.11 ЮЗ 1 20 км {снег, морось} 9/9 600 м
[Sc]
+0.3 -37.4 4 0 0 1008.9 983.9
15 14.11 ЮЗ 2 20 км {снег} 10/10 300 м
[St]
+0.3 -37.4 4 -2 -2 1010.7 985.7 0.8
18 14.11 ЮЗ 2 20 км {ливн. осадки, снег} 10/10 630 м
[Cb cap]
+0.3 -37.3 4 -2 -2 1012.2 987.2 +0.4 0.3
21 14.11 Ю 2 4000 м снег 10/10 270 м
[Frnb Ns]
+0.2 -37.4 4 -2 -2 1013.5 988.3
00 15.11 ЮЗ 2 20 км {снег} 9/9 600 м
[Sc]
+0.7 -37.1 4 -1 -1 1014.4 989.3
03 15.11 Ю 3 4000 м слабый ливневой снег 10/10 570 м
[Cb cap]
+0.3 -37.3 4 -3 -3 1014.4 989.2 0.0 2
06 15.11 Ю 2 20 км {ливн. осадки} 10/10 420 м
[St]
+0.3 -37.3 4 -2 -2 1014.8 989.6 0.0 2 2
09 15.11 Ю 2 20 км в посл. час ливневой снег 9/9 300 м
[Cb cap Ci sp]
+0.9 -36.9 4 -1 -1 1015.2 990.1
12 15.11 Ю 3 20 км {ливн. осадки} 10/10 210 м
[St]
+1.0 -36.8 4 -2 -2 1014.4 989.3
15 15.11 Ю 2 4000 м слабый снег 10/10 300 м
[Frnb Ns]
+0.8 -37.0 4 -1 -1 1013.7 988.7 0.4
18 15.11 ЮЗ 3 4000 м снег 10/10 210 м
[Frnb Ns]
+0.9 -36.9 4 -2 -2 1013.2 988.1 +1.1 0.5
21 15.11 Ю 2 4000 м слабый снег 10/10 300 м
[Frnb Ns]
+1.3 -36.7 4 -0 -0 1012.7 987.7
00 16.11 Ю 2 4000 м слабый снег 10/10 330 м
[Frnb Ns]
+1.5 -36.5 4 -0 -0 1011.5 986.5
03 16.11 Ю 2 20 км {снег} 9/9 600 м
[Cb cap]
+1.1 -36.8 4 -1 -1 1010.1 985.1 +0.7 1
06 16.11 Ю 2 8000 м слабый снег 10/10 360 м
[Frnb Ns]
+0.3 -37.3 4 -2 -2 1009.4 984.4 +0.3 2 <0.5
09 16.11 З 2 8000 м слабый дождь {снег} 10/10 210 м
[Frnb Ns]
+0.6 -37.1 4 -1 -1 1011.4 986.3
12 16.11 ЮЗ 2 8000 м слабый дождь {снег} 10/10 360 м
[Frnb Ns]
+1.3 -36.6 4 -0 -0 1013.7 988.7
15 16.11 З 2 10 км слабый дождь {снег} 10/10 360 м
[Frnb Ns]
+1.3 -36.7 4 -0 -0 1016.4 991.3 3
18 16.11 ЮЗ 1 4000 м слабый дождь со снегом 10/10 270 м
[Frnb Ns]
+1.1 -36.7 4 +1 +1 1017.2 992.1 +1.5 3
21 16.11 З 1 20 км {снег, дождь} 10/10 240 м
[St]
+1.7 -36.4 4 +2 +2 1018.2 993.1
00 17.11 ЮЗ 2 4000 м слабый снег {дождь} 10/10 300 м
[Frnb Ns]
+1.4 -36.5 4 -0 -0 1018.8 993.6
03 17.11 Ю 2 20 км {ливн. осадки, снег} 9/9 600 м
[Sc]
+0.8 -36.9 4 -1 -1 1018.7 993.5 +0.3 3
06 17.11 Ю 3 н/о слабая морось {ливн. осадки, снег} 10/10 330 м
[St]
+0.5 -37.2 4 -2 -2 1018.0 992.8 -0.0 2
09 17.11 Ю 3
{10}
20 км в посл. час ливневой снег {морось} 10/10 600 м
[Cb cap]
+0.5 -37.2 4 -2 -2 1016.7 991.6
12 17.11 Ю 3 20 км {ливн. осадки, морось} 10/10 720 м
[Sc]
+1.6 -36.4 4 -1 -1 1014.0 989.0
15 17.11 Ю 4 10 км слабый дождь 10/10 360 м
[Frnb Ns]
+1.4 -36.6 4 -2 -2 1011.8 986.8 0.3
18 17.11 Ю 3 20 км в посл. час снег {дождь} 10/10 210 м
[St]
+1.1 -36.8 4 -2 -2 1011.2 986.3 +1.7 2
21 17.11 Ю 4
{10}
10 км слабый ливневой дождь 10/10 480 м
[Cb cap]
+2.6 -35.7 4 -1 -1 1011.5 986.7
00 18.11 ЮЗ 3 20 км {ливн. осадки} 10/10 330 м
[St]
+2.6 -35.7 4 0 0 1011.7 986.9
03 18.11 ЮЗ 3 20 км 10/10 500 м
[Cb cap]
+2.1 -36.1 4 -1 -1 1012.1 987.2 +0.8 2
06 18.11 Ю 4 20 км 3/3 600 м
[Sc]
+0.9 -36.9 4 -3 -3 1011.9 986.9 +0.8 0.4
09 18.11 Ю 4
{10}
20 км 9/9 600 м
[Sc]
+1.5 -36.5 4 -2 -2 1012.7 987.7
12 18.11 Ю 3 20 км 10/10 660 м
[Sc]
+1.4 -36.6 4 -1 -1 1012.1 987.1
15 18.11 Ю 2 20 км 10/10 700 м
[Sc]
+1.2 -36.7 4 -1 -1 1011.3 986.3
18 18.11 Ю 3 20 км 9/9 600 м
[Sc]
+1.2 -36.7 4 -2 -2 1010.1 985.2 +1.6
21 18.11 Ю 2 20 км 10/10 660 м
[Sc]
+1.1 -36.8 4 -1 -1 1009.7 984.8
00 19.11 ЮВ 2 20 км 10/10 630 м
[Sc]
+0.6 -37.1 4 -1 -1 1009.3 984.3
03 19.11 ЮВ 3 20 км 10/10 630 м
[Sc]
-0.0 -37.6 4 -3 -3 1008.2 983.2 -0.0
06 19.11 ЮВ 1 20 км 9/3 600 м
[Sc Cs]
-0.9 -38.2 4 -1 -1 1007.7 982.6 -1.2
09 19.11 ЮВ 2 20 км 9/0
[Cs]
+0.7 -37.1 4 -1 -1 1007.4 982.5
12 19.11 ЮВ 1 20 км 9/9 600 м
[Sc]
+0.7 -37.1 4 +1 +1 1006.3 981.4
15 19.11 ЮВ 2 20 км 9/8 600 м
[Sc Cs]
0.0 -37.5 4 -2 -2 1005.7 980.8
18 19.11 ЮВ 1 20 км 9/9 600 м
[Sc]
-0.6 -38.0 4 -1 -1 1005.1 980.1 +1.0
21 19.11 ЮВ 1 4000 м снег 10/10 240 м
[Frnb Ns]
-0.5 -37.9 4 -1 -1 1004.8 979.8
00 20.11 ЮВ 1 4000 м слабый снег 10/10 180 м
[Frnb Ns]
-0.3 -37.8 4 -1 -1 1004.1 979.1

 

Местоположение метеостанции Валдай (Новгородская область, Россия): широта 57.99 долгота 33.25 высота над уровнем моря 195 м.

В архиве по умолчанию представлена погода в Валдае за последнюю неделю. Архивные данные за месяц целиком и за предыдущие месяцы, начиная с января 2011 года, Вы можете получить, выбрав интересующий диапазон дат из раскрывающегося списка и нажав кнопку "Ввод!".

Внимание! Время в таблицах - всемирное. Для получения местного времени необходимо прибавить поправку, которая в Валдае равна 3 ч.

Смотрите также архив погоды в соседних городах и на ближайших метеорологических станциях:

Погода в Бологом (Тверская область, Россия) (48 км)
Погода в Крестцах (Новгородская область, Россия) (53 км)
Погода в Демянске (Новгородская область, Россия) (60 км)
Погода в Боровичах (Новгородская область, Россия) (61 км)
Погода в Вышнем Волочке (Тверская область, Россия) (93 км)
Погода в Осташкове (Тверская область, Россия) (98 км)
Погода в Охонах (Новгородская область, Россия) (110 км)
Погода в Старой Руссе (Новгородская область, Россия) (114 км)
Погода в Великом Новгороде (Новгородская область, Россия) (131 км)
Погода в Торжке (Тверская область, Россия) (150 км)

Пояснения к столбцам:

Ветер - указаны скорость ветра в м/с - средняя за 10 мин, порывы в срок и между сроками (в фигурных скобках) и направление, откуда дует ветер: С - северный, СВ - северо-восточный, В - восточный, ЮВ - юго-восточный, Ю - южный, ЮЗ - юго-западный, З - западный, СЗ - северо-западный.
Видимость - горизонтальная дальность видимости в метрах или километрах. При видимости от 1 до 10 км при отсутствии осадков обычно наблюдается дымка, при ухудшении видимости до 1 км и менее - туман. В сухую погоду видимость может ухудшаться дымом, пылью или мглою.
Явления - указаны атмосферные явления, наблюдавшиеся в срок или в последний час перед сроком; фигурными скобками обозначены явления, наблюдавшиеся между сроками (за 1-3 часа до срока); квадратными скобками обозначены град или гололедные отложения с указанием их диаметра в мм.
Облачность - указаны через наклонную черту общая и нижняя облачность в баллах и высота нижней границы облаков в метрах; квадратными скобками обозначены формы облаков: Ci - перистые, Cs - перисто-слоистые, Cc - перисто-кучевые, Ac - высококучевые, As - высокослоистые, Sc - слоисто-кучевые, Ns - слоисто-дождевые, Cu - кучевые, Cb - кучево-дождевые. Подробнее классификацию облаков см. в Атласе облаков (PDF).
T - Температура воздуха - температура, измеренная на высоте 2 м над землей.
Td - Температура точки росы - температура, при понижении до которой содержащийся в воздухе водяной пар достигнет насыщения.
f - Относительная влажность воздуха - влажноcть воздуха, измеренная на высоте 2 м над землей.
Te - Эффективная температура - температура, которую ощущает одетый по сезону человек в тени. Характеристика душности погоды. При расчете учитывается влияние влажности воздуха и скорости ветра на теплоощущения человека.
Tes - Эффективная температура на солнце - температура, которую ощущает человек, с поправкой на солнечный нагрев. Характеристика знойности погоды. Зависит от высоты солнца над горизонтом, облачности и скорости ветра. Ночью, в пасмурную погоду, а также при ветре 12 м/с и более поправка равна нулю.
P - Атмосферное давление - приведенное к уровню моря атмосферное давление.
Po - Атмосферное давление - измеренное на уровне метеостанции атмосферное давление.
Tmin - Минимальная температура - минимум температуры воздуха на высоте 2 м над землей.
Tmax - Максимальная температура - максимум температуры воздуха на высоте 2 м над землей.
R - Количество осадков - Количество выпавших осадков за период времени, мм. При наведении курсора мыши на число - период времени, за который выпало указанное количество осадков.
R24 - Количество осадков - Количество выпавших осадков за 24 часа, мм.
S - Снежный покров - Высота снежного покрова, см. При наведении курсора мыши на число - состояние снежного покрова и степень покрытия местности в баллах.